^^
Station Historical Data
Daily Summary for April 14, 2017 Units:  English    Metric   Both
« Previous Day
Next Day »
Daily Weekly Monthly Yearly Custom
  High: Low: Average:
Temperature: 66.8 °F 42.0 °F 53.9 °F
Dew Point: 40.8 °F 25.2 °F 32.7 °F
Humidity: 70 % 27 % 47 %
Wind Speed: 6.0 mph 0.0 mph 0.5 mph
Wind Gust: 11.5 mph - -
Wind:- - SSE
Pressure: 30.43 in 30.31 in -
Precipitation: 0.00 in    
Historical Graphs
 
 
Tabular Data for April 14, 2017
Time Temperature Dew Point Pressure Wind Wind Speed Wind Gust Humidity Rainfall Rate (Hourly) solar Conditions
00:04 47.8 °F 26.4 °F 30.40 in Calm     43 % 0.00 in 0.0 W/m2 CLR
00:09 47.3 °F 27.0 °F 30.40 in Calm     45 % 0.00 in 0.0 W/m2 CLR
00:14 47.0 °F 27.3 °F 30.40 in Calm     46 % 0.00 in 0.0 W/m2 CLR
00:19 46.6 °F 26.9 °F 30.40 in Calm     46 % 0.00 in 0.0 W/m2 CLR
00:24 46.3 °F 27.7 °F 30.40 in Calm     48 % 0.00 in 0.0 W/m2 CLR
00:29 46.3 °F 28.2 °F 30.40 in Calm     49 % 0.00 in 0.0 W/m2 CLR
00:35 45.9 °F 27.8 °F 30.40 in Calm     49 % 0.00 in 0.0 W/m2 CLR
00:40 46.3 °F 27.2 °F 30.40 in Calm     47 % 0.00 in 0.0 W/m2 CLR
00:41 46.1 °F 27.5 °F 30.40 in Calm     48 % 0.00 in 0.0 W/m2 CLR
00:46 45.5 °F 27.9 °F 30.39 in Calm     50 % 0.00 in 0.0 W/m2 CLR
00:51 45.7 °F 27.6 °F 30.39 in Calm     49 % 0.00 in 0.0 W/m2 CLR
00:56 45.7 °F 27.6 °F 30.39 in Calm     49 % 0.00 in 0.0 W/m2 CLR
01:01 45.7 °F 27.6 °F 30.39 in Calm     49 % 0.00 in 0.0 W/m2 CLR
01:06 45.6 °F 27.5 °F 30.40 in Calm     49 % 0.00 in 0.0 W/m2 CLR
01:11 45.8 °F 28.2 °F 30.40 in Calm     50 % 0.00 in 0.0 W/m2 CLR
01:16 45.7 °F 28.6 °F 30.40 in Calm     51 % 0.00 in 0.0 W/m2 CLR
01:21 45.5 °F 29.3 °F 30.40 in Calm     53 % 0.00 in 0.0 W/m2 CLR
01:26 45.0 °F 28.9 °F 30.40 in Calm     53 % 0.00 in 0.0 W/m2 CLR
01:31 44.8 °F 28.7 °F 30.40 in Calm     53 % 0.00 in 0.0 W/m2 CLR
01:36 44.2 °F 29.0 °F 30.40 in Calm     55 % 0.00 in 0.0 W/m2 CLR
01:41 43.9 °F 29.2 °F 30.39 in Calm     56 % 0.00 in 0.0 W/m2 CLR
01:46 44.0 °F 29.3 °F 30.39 in Calm     56 % 0.00 in 0.0 W/m2 CLR
01:51 43.9 °F 29.2 °F 30.40 in Calm     56 % 0.00 in 0.0 W/m2 CLR
01:56 43.5 °F 28.8 °F 30.40 in Calm     56 % 0.00 in 0.0 W/m2 CLR
02:01 43.2 °F 29.4 °F 30.39 in Calm     58 % 0.00 in 0.0 W/m2 CLR
02:06 42.9 °F 29.5 °F 30.39 in Calm     59 % 0.00 in 0.0 W/m2 CLR
02:11 42.8 °F 29.5 °F 30.39 in Calm     59 % 0.00 in 0.0 W/m2 CLR
02:16 42.3 °F 29.8 °F 30.38 in Calm     61 % 0.00 in 0.0 W/m2 CLR
02:21 42.1 °F 29.6 °F 30.38 in Calm     61 % 0.00 in 0.0 W/m2 CLR
02:26 42.2 °F 29.7 °F 30.38 in Calm     61 % 0.00 in 0.0 W/m2 CLR
02:31 42.2 °F 29.7 °F 30.38 in Calm     61 % 0.00 in 0.0 W/m2 CLR
02:36 42.1 °F 30.0 °F 30.39 in Calm     62 % 0.00 in 0.0 W/m2 CLR
02:41 42.0 °F 30.3 °F 30.40 in Calm     63 % 0.00 in 0.0 W/m2 CLR
02:46 42.0 °F 29.9 °F 30.39 in Calm     62 % 0.00 in 0.0 W/m2 CLR
02:51 42.0 °F 29.9 °F 30.40 in Calm     62 % 0.00 in 0.0 W/m2 CLR
02:56 42.3 °F 30.2 °F 30.40 in Calm     62 % 0.00 in 0.0 W/m2 CLR
03:01 42.3 °F 30.2 °F 30.40 in Calm     62 % 0.00 in 0.0 W/m2 CLR
03:06 42.7 °F 30.6 °F 30.40 in Calm     62 % 0.00 in 0.0 W/m2 CLR
03:11 42.9 °F 30.8 °F 30.40 in Calm     62 % 0.00 in 0.0 W/m2 CLR
03:16 42.5 °F 30.8 °F 30.39 in Calm     63 % 0.00 in 0.0 W/m2 CLR
03:22 42.5 °F 31.2 °F 30.39 in Calm     64 % 0.00 in 0.0 W/m2 CLR
03:27 42.3 °F 31.0 °F 30.39 in Calm     64 % 0.00 in 0.0 W/m2 CLR
03:32 42.2 °F 30.9 °F 30.39 in Calm     64 % 0.00 in 0.0 W/m2 CLR
03:37 42.3 °F 30.6 °F 30.39 in Calm     63 % 0.00 in 0.0 W/m2 CLR
03:42 42.5 °F 30.8 °F 30.39 in Calm     63 % 0.00 in 0.0 W/m2 CLR
03:47 42.5 °F 30.4 °F 30.39 in Calm     62 % 0.00 in 0.0 W/m2 CLR
03:52 42.7 °F 31.0 °F 30.39 in Calm     63 % 0.00 in 0.0 W/m2 CLR
03:57 42.8 °F 31.5 °F 30.39 in Calm     64 % 0.00 in 0.0 W/m2 CLR
04:02 42.8 °F 31.5 °F 30.40 in Calm     64 % 0.00 in 0.0 W/m2 CLR
04:07 42.9 °F 31.9 °F 30.40 in Calm     65 % 0.00 in 0.0 W/m2 CLR
04:12 43.3 °F 31.9 °F 30.40 in Calm     64 % 0.00 in 0.0 W/m2 CLR
04:17 43.6 °F 32.2 °F 30.40 in Calm     64 % 0.00 in 0.0 W/m2 CLR
04:22 43.6 °F 32.2 °F 30.40 in North 0.4 mph 2.3 mph 64 % 0.00 in 0.0 W/m2 CLR
04:27 43.4 °F 32.0 °F 30.40 in Calm     64 % 0.00 in 0.0 W/m2 CLR
04:32 43.1 °F 32.1 °F 30.40 in Calm     65 % 0.00 in 0.0 W/m2 CLR
04:37 43.2 °F 32.2 °F 30.39 in Calm     65 % 0.00 in 0.0 W/m2 CLR
04:42 43.4 °F 32.4 °F 30.39 in Calm     65 % 0.00 in 0.0 W/m2 CLR
04:47 43.9 °F 32.9 °F 30.39 in Calm     65 % 0.00 in 0.0 W/m2 CLR
04:52 43.9 °F 32.5 °F 30.39 in Calm     64 % 0.00 in 0.0 W/m2 CLR
04:57 43.5 °F 32.1 °F 30.40 in Calm     64 % 0.00 in 0.0 W/m2 CLR
05:02 43.2 °F 32.6 °F 30.40 in Calm     66 % 0.00 in 0.0 W/m2 CLR
05:07 43.0 °F 32.4 °F 30.40 in Calm     66 % 0.00 in 0.0 W/m2 CLR
05:12 43.0 °F 32.8 °F 30.40 in Calm     67 % 0.00 in 0.0 W/m2 CLR
05:17 42.9 °F 32.7 °F 30.39 in Calm     67 % 0.00 in 0.0 W/m2 CLR
05:22 42.8 °F 32.6 °F 30.39 in Calm     67 % 0.00 in 0.0 W/m2 CLR
05:27 42.8 °F 33.0 °F 30.39 in Calm     68 % 0.00 in 0.0 W/m2 CLR
05:32 42.8 °F 33.0 °F 30.40 in Calm     68 % 0.00 in 0.0 W/m2 CLR
05:37 42.9 °F 33.1 °F 30.39 in Calm     68 % 0.00 in 0.0 W/m2 CLR
05:42 42.9 °F 33.1 °F 30.39 in Calm     68 % 0.00 in 0.0 W/m2 CLR
05:47 43.1 °F 33.3 °F 30.40 in Calm     68 % 0.00 in 0.0 W/m2 CLR
05:52 43.1 °F 33.3 °F 30.40 in Calm     68 % 0.00 in 0.0 W/m2 CLR
05:57 42.9 °F 33.1 °F 30.39 in Calm     68 % 0.00 in 0.0 W/m2 CLR
06:02 42.9 °F 33.1 °F 30.39 in Calm     68 % 0.00 in 0.0 W/m2 CLR
06:07 42.9 °F 33.1 °F 30.40 in Calm     68 % 0.00 in 0.0 W/m2 CLR
06:12 43.0 °F 33.2 °F 30.40 in Calm     68 % 0.00 in 0.0 W/m2 CLR
06:17 43.0 °F 33.2 °F 30.39 in Calm     68 % 0.00 in 0.0 W/m2 CLR
06:22 43.0 °F 33.2 °F 30.39 in Calm     68 % 0.00 in 0.0 W/m2 CLR
06:27 42.9 °F 33.4 °F 30.40 in Calm     69 % 0.00 in 0.0 W/m2 CLR
06:32 42.6 °F 33.5 °F 30.40 in Calm     70 % 0.00 in 7.0 W/m2 CLR
06:37 42.6 °F 33.5 °F 30.40 in Calm     70 % 0.00 in 11.0 W/m2 CLR
06:42 42.8 °F 33.7 °F 30.40 in Calm     70 % 0.00 in 14.0 W/m2 CLR
06:47 43.1 °F 34.0 °F 30.40 in Calm     70 % 0.00 in 19.0 W/m2 CLR
06:52 43.1 °F 34.0 °F 30.40 in Calm     70 % 0.00 in 25.0 W/m2 CLR
06:57 43.3 °F 33.8 °F 30.41 in Calm     69 % 0.00 in 28.0 W/m2 CLR
07:02 43.5 °F 33.6 °F 30.41 in Calm     68 % 0.00 in 30.0 W/m2 CLR
07:07 43.7 °F 33.5 °F 30.41 in Calm     67 % 0.00 in 35.0 W/m2 CLR
07:12 44.1 °F 33.5 °F 30.41 in Calm     66 % 0.00 in 40.0 W/m2 SCT
07:17 44.3 °F 33.3 °F 30.42 in Calm     65 % 0.00 in 46.0 W/m2 SCT
07:22 44.3 °F 32.9 °F 30.41 in Calm     64 % 0.00 in 51.0 W/m2 SCT
07:27 44.7 °F 32.9 °F 30.42 in Calm     63 % 0.00 in 60.0 W/m2 SCT
07:32 45.2 °F 32.5 °F 30.42 in Calm     61 % 0.00 in 70.0 W/m2 SCT
07:37 45.5 °F 32.4 °F 30.42 in Calm     60 % 0.00 in 77.0 W/m2 SCT
07:42 45.7 °F 32.2 °F 30.42 in NNW 0.6 mph 2.3 mph 59 % 0.00 in 81.0 W/m2 SCT
07:47 45.8 °F 32.3 °F 30.42 in Calm   2.3 mph 59 % 0.00 in 79.0 W/m2 SCT
07:52 45.9 °F 32.4 °F 30.42 in NNW 0.2 mph   59 % 0.00 in 77.0 W/m2 BKN
07:57 45.9 °F 31.9 °F 30.42 in NNW 0.1 mph 2.3 mph 58 % 0.00 in 74.0 W/m2 BKN
08:02 46.0 °F 32.0 °F 30.42 in NNW 0.1 mph 2.3 mph 58 % 0.00 in 83.0 W/m2 BKN
08:07 46.2 °F 32.2 °F 30.42 in North 2.5 mph 3.5 mph 58 % 0.00 in 88.0 W/m2 BKN
08:12 46.4 °F 32.0 °F 30.42 in NNE 0.3 mph 3.5 mph 57 % 0.00 in 105.0 W/m2 BKN
08:17 46.7 °F 32.3 °F 30.42 in NNE 0.9 mph 4.0 mph 57 % 0.00 in 107.0 W/m2 BKN
08:22 46.8 °F 31.5 °F 30.42 in Calm   1.2 mph 55 % 0.00 in 116.0 W/m2 BKN
08:27 47.0 °F 31.7 °F 30.42 in Calm     55 % 0.00 in 130.0 W/m2 BKN
08:32 47.2 °F 31.4 °F 30.42 in NE 0.4 mph 5.0 mph 54 % 0.00 in 130.0 W/m2 BKN
08:37 47.2 °F 30.5 °F 30.42 in NE 0.6 mph 3.5 mph 52 % 0.00 in 149.0 W/m2 BKN
08:43 47.4 °F 31.1 °F 30.42 in Calm     53 % 0.00 in 165.0 W/m2 SCT
08:48 47.5 °F 30.7 °F 30.42 in Calm     52 % 0.00 in 165.0 W/m2 BKN
08:53 48.0 °F 31.7 °F 30.42 in NE 0.2 mph 1.2 mph 53 % 0.00 in 176.0 W/m2 BKN
08:58 48.0 °F 30.7 °F 30.42 in NNE 2.9 mph 9.0 mph 51 % 0.00 in 188.0 W/m2 SCT
09:03 48.2 °F 29.9 °F 30.42 in NNE 6.0 mph 10.4 mph 49 % 0.00 in 193.0 W/m2 BKN
09:08 48.4 °F 29.6 °F 30.42 in NNE 1.9 mph 3.5 mph 48 % 0.00 in 213.0 W/m2 SCT
09:13 48.8 °F 29.4 °F 30.42 in NNE 3.4 mph 4.6 mph 47 % 0.00 in 204.0 W/m2 SCT
09:18 48.9 °F 29.5 °F 30.42 in Calm   3.5 mph 47 % 0.00 in 234.0 W/m2 SCT
09:23 49.3 °F 29.9 °F 30.42 in NNE 1.3 mph 4.6 mph 47 % 0.00 in 265.0 W/m2 SCT
09:28 49.6 °F 30.2 °F 30.42 in NNE 3.1 mph 3.5 mph 47 % 0.00 in 288.0 W/m2 SCT
09:33 49.8 °F 29.3 °F 30.42 in Calm     45 % 0.00 in 292.0 W/m2 SCT
09:38 50.1 °F 29.6 °F 30.42 in ESE 0.8 mph 3.5 mph 45 % 0.00 in 323.0 W/m2 SCT
09:43 50.1 °F 30.1 °F 30.42 in NE 0.4 mph 3.5 mph 46 % 0.00 in 355.0 W/m2 FEW
09:48 50.4 °F 30.4 °F 30.42 in Calm   1.2 mph 46 % 0.00 in 378.0 W/m2 FEW
09:53 50.6 °F 30.0 °F 30.43 in Calm     45 % 0.00 in 390.0 W/m2 FEW
09:58 51.1 °F 29.9 °F 30.43 in Calm     44 % 0.00 in 397.0 W/m2 FEW
10:03 51.0 °F 29.3 °F 30.43 in Calm     43 % 0.00 in 415.0 W/m2 FEW
10:08 50.8 °F 29.1 °F 30.43 in Calm     43 % 0.00 in 490.0 W/m2 FEW
10:13 51.5 °F 29.7 °F 30.43 in Calm   2.3 mph 43 % 0.00 in 543.0 W/m2 CLR
10:18 51.7 °F 29.3 °F 30.43 in Calm     42 % 0.00 in 603.0 W/m2 CLR
10:24 52.2 °F 30.4 °F 30.43 in Calm     43 % 0.00 in 483.0 W/m2 FEW
10:29 51.9 °F 29.5 °F 30.43 in Calm     42 % 0.00 in 408.0 W/m2 FEW
10:34 52.1 °F 30.3 °F 30.43 in Calm     43 % 0.00 in 431.0 W/m2 FEW
10:39 52.6 °F 30.1 °F 30.43 in Calm     42 % 0.00 in 476.0 W/m2 FEW
10:44 53.5 °F 31.5 °F 30.43 in Calm     43 % 0.00 in 715.0 W/m2 CLR
10:49 53.9 °F 31.9 °F 30.42 in Calm     43 % 0.00 in 916.0 W/m2 CLR
10:54 53.4 °F 30.3 °F 30.42 in Calm     41 % 0.00 in 838.0 W/m2 CLR
10:59 53.7 °F 31.1 °F 30.42 in Calm     42 % 0.00 in 679.0 W/m2 CLR
11:04 54.1 °F 33.2 °F 30.42 in Calm   1.2 mph 45 % 0.00 in 791.0 W/m2 CLR
11:09 54.8 °F 32.1 °F 30.42 in NNE 1.4 mph 3.5 mph 42 % 0.00 in 691.0 W/m2 CLR
11:14 54.8 °F 31.5 °F 30.42 in Calm     41 % 0.00 in 998.0 W/m2 CLR
11:19 55.3 °F 30.7 °F 30.42 in Calm     39 % 0.00 in 824.0 W/m2 CLR
11:24 55.3 °F 30.7 °F 30.42 in Calm     39 % 0.00 in 923.0 W/m2 CLR
11:29 56.6 °F 33.2 °F 30.42 in NNE 0.3 mph 1.2 mph 41 % 0.00 in 823.0 W/m2 CLR
11:34 56.0 °F 31.4 °F 30.42 in NE 4.0 mph 4.6 mph 39 % 0.00 in 868.0 W/m2 CLR
11:39 56.4 °F 29.1 °F 30.42 in Calm     35 % 0.00 in 888.0 W/m2 CLR
11:44 55.8 °F 29.2 °F 30.41 in Calm     36 % 0.00 in 473.0 W/m2 SCT
11:49 55.7 °F 31.1 °F 30.41 in Calm     39 % 0.00 in 394.0 W/m2 SCT
11:50 55.7 °F 29.1 °F 30.41 in Calm     36 % 0.00 in 677.0 W/m2 SCT
11:55 56.0 °F 28.7 °F 30.41 in Calm   1.0 mph 35 % 0.00 in 682.0 W/m2 CLR
12:00 57.0 °F 25.8 °F 30.41 in Calm     30 % 0.00 in 923.0 W/m2 CLR
12:05 58.0 °F 31.8 °F 30.41 in NNW 2.0 mph 4.6 mph 37 % 0.00 in 981.0 W/m2 CLR
12:10 57.5 °F 27.1 °F 30.41 in Calm     31 % 0.00 in 946.0 W/m2 CLR
12:15 57.9 °F 28.9 °F 30.40 in Calm     33 % 0.00 in 1020.0 W/m2 CLR
12:20 57.8 °F 28.9 °F 30.40 in NNE 0.5 mph 3.5 mph 33 % 0.00 in 636.0 W/m2 FEW
12:25 57.0 °F 26.6 °F 30.40 in Calm     31 % 0.00 in 842.0 W/m2 CLR
12:30 57.7 °F 28.8 °F 30.40 in NE 1.0 mph 3.5 mph 33 % 0.00 in 983.0 W/m2 CLR
12:35 57.8 °F 27.3 °F 30.40 in Calm     31 % 0.00 in 976.0 W/m2 CLR
12:40 58.2 °F 25.2 °F 30.40 in Calm     28 % 0.00 in 974.0 W/m2 CLR
12:45 58.4 °F 26.2 °F 30.40 in Calm     29 % 0.00 in 949.0 W/m2 CLR
12:50 58.9 °F 27.5 °F 30.40 in NNE 0.4 mph 3.0 mph 30 % 0.00 in 951.0 W/m2 CLR
12:55 59.3 °F 28.6 °F 30.39 in Calm     31 % 0.00 in 951.0 W/m2 CLR
13:00 59.9 °F 29.9 °F 30.39 in North 2.3 mph 4.6 mph 32 % 0.00 in 944.0 W/m2 CLR
13:05 60.3 °F 31.0 °F 30.39 in Calm   2.3 mph 33 % 0.00 in 951.0 W/m2 CLR
13:10 60.6 °F 32.1 °F 30.39 in Calm     34 % 0.00 in 963.0 W/m2 CLR
13:15 61.4 °F 32.0 °F 30.39 in NNW 1.7 mph 3.5 mph 33 % 0.00 in 947.0 W/m2 CLR
13:20 62.7 °F 33.9 °F 30.39 in WNW 4.5 mph 7.0 mph 34 % 0.00 in 937.0 W/m2 CLR
13:25 62.0 °F 30.2 °F 30.39 in WNW 0.8 mph 3.5 mph 30 % 0.00 in 932.0 W/m2 CLR
13:30 61.1 °F 30.2 °F 30.39 in Calm   1.2 mph 31 % 0.00 in 923.0 W/m2 CLR
13:35 60.8 °F 31.5 °F 30.38 in NE 2.8 mph 3.5 mph 33 % 0.00 in 919.0 W/m2 CLR
13:40 60.0 °F 30.0 °F 30.38 in South 2.1 mph 3.5 mph 32 % 0.00 in 918.0 W/m2 CLR
13:45 60.2 °F 31.0 °F 30.38 in Calm   1.0 mph 33 % 0.00 in 912.0 W/m2 CLR
13:50 61.4 °F 32.0 °F 30.38 in SSW 0.3 mph 2.3 mph 33 % 0.00 in 912.0 W/m2 CLR
13:55 61.1 °F 31.0 °F 30.37 in NW 0.2 mph 3.5 mph 32 % 0.00 in 909.0 W/m2 CLR
14:00 61.2 °F 31.8 °F 30.37 in Calm     33 % 0.00 in 902.0 W/m2 CLR
14:05 62.0 °F 33.3 °F 30.37 in SE 0.7 mph 3.0 mph 34 % 0.00 in 902.0 W/m2 CLR
14:10 61.4 °F 31.3 °F 30.37 in Calm     32 % 0.00 in 895.0 W/m2 CLR
14:15 63.1 °F 32.7 °F 30.36 in Calm   2.3 mph 32 % 0.00 in 874.0 W/m2 CLR
14:20 63.3 °F 32.9 °F 30.36 in NW 1.3 mph 2.0 mph 32 % 0.00 in 875.0 W/m2 CLR
14:25 63.5 °F 33.9 °F 30.36 in Calm   2.3 mph 33 % 0.00 in 867.0 W/m2 CLR
14:30 62.7 °F 35.3 °F 30.36 in Calm   3.5 mph 36 % 0.00 in 860.0 W/m2 CLR
14:35 62.7 °F 33.2 °F 30.35 in Calm     33 % 0.00 in 846.0 W/m2 CLR
14:40 62.5 °F 32.2 °F 30.35 in Calm     32 % 0.00 in 837.0 W/m2 CLR
14:45 63.1 °F 31.9 °F 30.35 in South 0.5 mph 2.3 mph 31 % 0.00 in 828.0 W/m2 CLR
14:50 63.8 °F 33.4 °F 30.35 in SSW 0.9 mph 3.5 mph 32 % 0.00 in 810.0 W/m2 CLR
14:55 63.6 °F 33.2 °F 30.35 in SW 3.0 mph 5.0 mph 32 % 0.00 in 800.0 W/m2 CLR
15:00 63.4 °F 33.0 °F 30.35 in SSW 1.8 mph 3.5 mph 32 % 0.00 in 777.0 W/m2 CLR
15:01 63.5 °F 33.1 °F 30.35 in SSW 1.4 mph 4.0 mph 32 % 0.00 in 777.0 W/m2 CLR
15:06 63.8 °F 34.1 °F 30.35 in SSE 1.2 mph 3.5 mph 33 % 0.00 in 793.0 W/m2 CLR
15:11 63.6 °F 34.7 °F 30.35 in South 2.0 mph 7.0 mph 34 % 0.00 in 782.0 W/m2 CLR
15:16 64.0 °F 33.5 °F 30.34 in SSW 2.6 mph 5.0 mph 32 % 0.00 in 772.0 W/m2 CLR
15:21 64.0 °F 33.5 °F 30.34 in ESE 0.6 mph 3.5 mph 32 % 0.00 in 759.0 W/m2 CLR
15:26 63.9 °F 33.4 °F 30.34 in Calm   2.3 mph 32 % 0.00 in 745.0 W/m2 CLR
15:31 64.7 °F 33.3 °F 30.34 in SSE 1.3 mph 4.6 mph 31 % 0.00 in 737.0 W/m2 CLR
15:36 64.6 °F 33.3 °F 30.33 in Calm     31 % 0.00 in 726.0 W/m2 CLR
15:41 65.3 °F 33.9 °F 30.33 in South 4.0 mph 5.8 mph 31 % 0.00 in 715.0 W/m2 CLR
15:46 65.5 °F 33.2 °F 30.33 in SW 3.1 mph 4.6 mph 30 % 0.00 in 693.0 W/m2 CLR
15:51 65.0 °F 32.8 °F 30.33 in SW 3.3 mph 4.6 mph 30 % 0.00 in 687.0 W/m2 CLR
15:56 64.8 °F 32.6 °F 30.33 in SW 3.8 mph 4.6 mph 30 % 0.00 in 673.0 W/m2 CLR
16:01 65.0 °F 32.8 °F 30.33 in SW 4.3 mph 6.0 mph 30 % 0.00 in 657.0 W/m2 CLR
16:06 64.6 °F 32.4 °F 30.32 in Calm   3.5 mph 30 % 0.00 in 642.0 W/m2 CLR
16:11 64.9 °F 32.7 °F 30.32 in SW 1.8 mph 6.9 mph 30 % 0.00 in 628.0 W/m2 CLR
16:16 64.9 °F 32.7 °F 30.32 in Calm     30 % 0.00 in 610.0 W/m2 CLR
16:21 65.7 °F 34.2 °F 30.32 in SW 2.4 mph 4.6 mph 31 % 0.00 in 592.0 W/m2 CLR
16:26 65.5 °F 33.2 °F 30.32 in South 2.5 mph 4.0 mph 30 % 0.00 in 580.0 W/m2 CLR
16:31 65.2 °F 33.0 °F 30.32 in South 1.3 mph 3.5 mph 30 % 0.00 in 566.0 W/m2 CLR
16:36 65.4 °F 32.3 °F 30.32 in SSW 3.7 mph 8.1 mph 29 % 0.00 in 548.0 W/m2 CLR
16:41 65.1 °F 32.0 °F 30.31 in SSW 2.3 mph 3.5 mph 29 % 0.00 in 533.0 W/m2 CLR
16:46 65.3 °F 32.2 °F 30.31 in Calm     29 % 0.00 in 512.0 W/m2 CLR
16:51 65.4 °F 33.1 °F 30.31 in South 0.1 mph 1.2 mph 30 % 0.00 in 497.0 W/m2 CLR
16:56 65.3 °F 33.0 °F 30.31 in Calm     30 % 0.00 in 483.0 W/m2 CLR
17:01 65.4 °F 33.1 °F 30.31 in Calm     30 % 0.00 in 459.0 W/m2 CLR
17:06 65.8 °F 33.5 °F 30.31 in West 0.9 mph 3.5 mph 30 % 0.00 in 436.0 W/m2 CLR
17:11 65.9 °F 32.7 °F 30.31 in SSW 3.7 mph 6.9 mph 29 % 0.00 in 436.0 W/m2 CLR
17:16 65.8 °F 32.6 °F 30.31 in SSW 0.4 mph 3.5 mph 29 % 0.00 in 408.0 W/m2 CLR
17:21 66.1 °F 32.9 °F 30.31 in Calm   1.2 mph 29 % 0.00 in 396.0 W/m2 CLR
17:26 66.4 °F 33.2 °F 30.31 in South 0.5 mph 4.0 mph 29 % 0.00 in 371.0 W/m2 CLR
17:31 66.3 °F 33.1 °F 30.31 in SSW 2.7 mph 5.8 mph 29 % 0.00 in 359.0 W/m2 CLR
17:36 66.4 °F 33.2 °F 30.31 in SSW 1.5 mph 2.0 mph 29 % 0.00 in 341.0 W/m2 CLR
17:41 66.4 °F 33.2 °F 30.31 in South 2.9 mph 4.0 mph 29 % 0.00 in 325.0 W/m2 CLR
17:46 66.5 °F 32.4 °F 30.31 in SW 0.1 mph 4.0 mph 28 % 0.00 in 306.0 W/m2 CLR
17:51 66.4 °F 31.4 °F 30.31 in Calm     27 % 0.00 in 285.0 W/m2 CLR
17:56 66.2 °F 33.0 °F 30.31 in SSW 1.0 mph 3.5 mph 29 % 0.00 in 250.0 W/m2 CLR
18:01 66.6 °F 33.3 °F 30.31 in Calm     29 % 0.00 in 246.0 W/m2 CLR
18:06 66.8 °F 32.6 °F 30.31 in SSW 1.6 mph 5.8 mph 28 % 0.00 in 225.0 W/m2 CLR
18:11 66.7 °F 33.4 °F 30.31 in SW 1.6 mph 3.5 mph 29 % 0.00 in 202.0 W/m2 CLR
18:16 66.4 °F 33.2 °F 30.31 in Calm   3.5 mph 29 % 0.00 in 190.0 W/m2 CLR
18:21 66.5 °F 33.2 °F 30.31 in Calm     29 % 0.00 in 169.0 W/m2 CLR
18:26 66.0 °F 33.7 °F 30.31 in SSW 2.6 mph 6.0 mph 30 % 0.00 in 146.0 W/m2 CLR
18:31 66.2 °F 33.0 °F 30.31 in SW 1.0 mph 3.5 mph 29 % 0.00 in 127.0 W/m2 FEW
18:36 66.2 °F 33.0 °F 30.31 in Calm     29 % 0.00 in 113.0 W/m2 FEW
18:41 66.3 °F 33.1 °F 30.31 in Calm     29 % 0.00 in 93.0 W/m2 FEW
18:46 66.3 °F 33.1 °F 30.31 in Calm   1.2 mph 29 % 0.00 in 77.0 W/m2 FEW
18:51 66.1 °F 33.7 °F 30.31 in West 0.8 mph 2.3 mph 30 % 0.00 in 63.0 W/m2 SCT
18:56 66.0 °F 34.5 °F 30.31 in Calm   3.5 mph 31 % 0.00 in 53.0 W/m2 SCT
19:01 65.8 °F 34.3 °F 30.31 in Calm     31 % 0.00 in 40.0 W/m2 SCT
19:06 65.6 °F 34.9 °F 30.31 in Calm     32 % 0.00 in 32.0 W/m2 BKN
19:11 65.3 °F 35.4 °F 30.31 in Calm   2.3 mph 33 % 0.00 in 26.0 W/m2 BKN
19:16 65.1 °F 35.3 °F 30.31 in Calm     33 % 0.00 in 21.0 W/m2 SCT
19:21 64.8 °F 35.8 °F 30.31 in Calm     34 % 0.00 in 18.0 W/m2 SCT
19:26 64.6 °F 35.6 °F 30.32 in Calm     34 % 0.00 in 14.0 W/m2 SCT
19:31 64.5 °F 35.5 °F 30.32 in Calm     34 % 0.00 in 12.0 W/m2 FEW
19:36 64.3 °F 35.3 °F 30.32 in Calm     34 % 0.00 in 7.0 W/m2 FEW
19:41 63.9 °F 35.7 °F 30.32 in Calm     35 % 0.00 in 5.0 W/m2 FEW
19:46 63.7 °F 35.5 °F 30.32 in Calm     35 % 0.00 in 0.0 W/m2 FEW
19:51 63.4 °F 35.2 °F 30.32 in Calm     35 % 0.00 in 0.0 W/m2 FEW
19:56 63.2 °F 36.5 °F 30.32 in Calm     37 % 0.00 in 0.0 W/m2 FEW
20:01 62.9 °F 36.2 °F 30.32 in Calm   1.2 mph 37 % 0.00 in 0.0 W/m2 FEW
20:06 62.8 °F 36.8 °F 30.32 in Calm     38 % 0.00 in 0.0 W/m2 FEW
20:11 62.3 °F 36.4 °F 30.32 in Calm     38 % 0.00 in 0.0 W/m2 FEW
20:16 62.1 °F 35.5 °F 30.33 in Calm     37 % 0.00 in 0.0 W/m2 FEW
20:21 62.3 °F 35.7 °F 30.33 in Calm     37 % 0.00 in 0.0 W/m2 FEW
20:26 62.0 °F 35.4 °F 30.33 in Calm     37 % 0.00 in 0.0 W/m2 FEW
20:31 61.6 °F 36.4 °F 30.33 in Calm     39 % 0.00 in 0.0 W/m2 FEW
20:36 61.1 °F 36.6 °F 30.34 in Calm     40 % 0.00 in 0.0 W/m2 FEW
20:41 60.6 °F 36.1 °F 30.34 in Calm     40 % 0.00 in 0.0 W/m2 FEW
20:47 60.5 °F 36.7 °F 30.34 in Calm     41 % 0.00 in 0.0 W/m2 FEW
20:52 60.1 °F 36.9 °F 30.34 in Calm     42 % 0.00 in 0.0 W/m2 FEW
20:57 59.0 °F 38.2 °F 30.34 in Calm     46 % 0.00 in 0.0 W/m2 FEW
20:58 58.7 °F 37.4 °F 30.35 in Calm     45 % 0.00 in 0.0 W/m2 FEW
21:03 58.3 °F 37.6 °F 30.35 in Calm     46 % 0.00 in 0.0 W/m2 FEW
21:08 58.1 °F 37.4 °F 30.35 in Calm     46 % 0.00 in 0.0 W/m2 FEW
21:13 57.6 °F 37.0 °F 30.35 in Calm     46 % 0.00 in 0.0 W/m2 FEW
21:18 57.4 °F 37.3 °F 30.35 in Calm     47 % 0.00 in 0.0 W/m2 FEW
21:23 57.3 °F 37.8 °F 30.35 in Calm     48 % 0.00 in 0.0 W/m2 FEW
21:28 56.9 °F 36.9 °F 30.35 in Calm     47 % 0.00 in 0.0 W/m2 FEW
21:33 56.6 °F 37.1 °F 30.35 in Calm     48 % 0.00 in 0.0 W/m2 FEW
21:38 56.6 °F 37.1 °F 30.36 in ENE 0.3 mph   48 % 0.00 in 0.0 W/m2 FEW
21:43 56.9 °F 37.9 °F 30.36 in SE 1.4 mph 11.5 mph 49 % 0.00 in 0.0 W/m2 FEW
21:48 56.9 °F 38.4 °F 30.36 in SE 2.3 mph 3.5 mph 50 % 0.00 in 0.0 W/m2 FEW
21:53 57.0 °F 39.0 °F 30.36 in SE 0.4 mph 3.0 mph 51 % 0.00 in 0.0 W/m2 FEW
21:58 56.9 °F 39.4 °F 30.36 in SE 0.9 mph 2.0 mph 52 % 0.00 in 0.0 W/m2 FEW
22:03 56.8 °F 39.8 °F 30.36 in SE 2.0 mph 5.0 mph 53 % 0.00 in 0.0 W/m2 FEW
22:08 56.7 °F 40.2 °F 30.36 in SE 0.6 mph 5.0 mph 54 % 0.00 in 0.0 W/m2 FEW
22:13 56.5 °F 40.0 °F 30.36 in SSE 0.4 mph 1.2 mph 54 % 0.00 in 0.0 W/m2 FEW
22:18 56.3 °F 40.3 °F 30.37 in South 0.9 mph   55 % 0.00 in 0.0 W/m2 FEW
22:23 56.2 °F 40.2 °F 30.37 in SE 0.1 mph   55 % 0.00 in 0.0 W/m2 FEW
22:28 56.0 °F 40.5 °F 30.37 in SE 0.1 mph 1.0 mph 56 % 0.00 in 0.0 W/m2 FEW
22:33 55.8 °F 40.8 °F 30.37 in Calm   3.5 mph 57 % 0.00 in 0.0 W/m2 FEW
22:38 55.7 °F 40.7 °F 30.37 in Calm     57 % 0.00 in 0.0 W/m2 FEW
22:43 55.5 °F 40.5 °F 30.37 in Calm   3.5 mph 57 % 0.00 in 0.0 W/m2 FEW
22:48 55.3 °F 40.3 °F 30.37 in Calm     57 % 0.00 in 0.0 W/m2 FEW
22:53 55.2 °F 40.2 °F 30.37 in ESE 0.4 mph 1.2 mph 57 % 0.00 in 0.0 W/m2 FEW
22:58 55.1 °F 40.6 °F 30.37 in Calm     58 % 0.00 in 0.0 W/m2 FEW
23:03 54.8 °F 40.3 °F 30.37 in Calm     58 % 0.00 in 0.0 W/m2 FEW
23:08 54.7 °F 40.6 °F 30.37 in Calm     59 % 0.00 in 0.0 W/m2 FEW
23:13 54.6 °F 40.6 °F 30.37 in Calm     59 % 0.00 in 0.0 W/m2 FEW
23:18 54.4 °F 40.4 °F 30.37 in Calm   1.2 mph 59 % 0.00 in 0.0 W/m2 FEW
23:23 54.5 °F 40.5 °F 30.37 in Calm     59 % 0.00 in 0.0 W/m2 FEW
23:28 54.6 °F 40.6 °F 30.38 in South 0.5 mph 3.5 mph 59 % 0.00 in 0.0 W/m2 FEW
23:33 54.3 °F 40.3 °F 30.38 in Calm     59 % 0.00 in 0.0 W/m2 FEW
23:38 54.1 °F 40.5 °F 30.38 in Calm     60 % 0.00 in 0.0 W/m2 FEW
23:43 54.1 °F 40.5 °F 30.38 in Calm     60 % 0.00 in 0.0 W/m2 FEW
23:48 54.1 °F 40.5 °F 30.38 in South 0.7 mph 3.5 mph 60 % 0.00 in 0.0 W/m2 FEW
23:53 54.2 °F 40.2 °F 30.38 in Calm     59 % 0.00 in 0.0 W/m2 FEW
23:58 53.9 °F 40.3 °F 30.38 in SSE 0.9 mph 3.5 mph 60 % 0.00 in 0.0 W/m2 FEW
Air Products Campus Weather
Compliments of Weather Underground - 3.5 mb